RH
8 8 6 5 6 6 6 7 8 8 9 11 14 21 29 31 26 17 12 12 16 18 15 15 14 15 21 27 30 31 30 30 31 31 32 37 42 47 52 58 62 67 72 75 78 78 77 77 76 73 70 67 65 62 59 58 58 59 56 53 49 44 40 37 35 31 27 24 21 17 18 21 22 19 15 11 8 7 7 6 6 8 9 9 15 27
9 7 6 6 7 7 7 7 8 8 9 11 15 22 26 24 16 11 13 13 17 21 17 13 17 23 29 30 30 33 35 36 38 40 44 48 53 58 63 67 70 74 78 81 85 86 85 85 84 83 81 77 74 69 66 63 60 58 54 49 46 40 36 34 31 29 26 23 21 23 28 27 20 15 11 8 7 9 11 10 9 8 9 10 13 18
8 7 7 8 7 7 8 7 8 9 9 11 18 25 23 16 13 12 12 14 19 23 18 17 23 30 33 31 31 34 36 39 41 44 50 54 60 65 70 73 76 81 85 87 88 89 88 88 86 83 78 73 68 63 60 58 55 52 49 44 39 36 38 41 45 49 44 40 43 50 58 57 44 34 29 25 26 30 30 28 25 20 16 13 14 19
10 8 9 9 8 8 8 8 9 9 9 11 19 26 20 14 20 21 14 15 21 23 20 20 24 32 35 30 30 34 34 34 37 43 53 61 66 69 74 79 82 87 90 91 91 89 86 82 77 73 68 65 61 59 57 54 52 49 46 40 34 42 54 65 79 83 71 69 80 87 92 91 83 72 62 56 55 55 56 55 48 37 32 27 21 21
14 10 9 10 10 9 9 9 9 10 10 11 18 23 18 15 21 23 17 17 19 19 19 24 30 35 33 29 32 34 33 34 39 48 58 65 69 74 80 84 88 92 92 90 86 80 75 71 69 67 65 62 57 56 54 51 50 48 43 35 36 55 73 82 90 88 75 75 91 98 98 98 97 94 87 79 73 68 67 68 61 50 43 41 38 32
14 11 12 12 12 11 11 11 9 11 11 12 17 18 16 18 21 19 18 22 26 22 20 30 43 42 32 30 34 32 31 37 47 57 67 71 74 80 87 90 93 92 86 80 73 68 65 64 64 61 57 52 45 43 46 49 50 44 38 37 50 73 88 92 90 82 73 76 84 90 91 95 96 96 95 92 87 80 74 72 67 58 47 43 46 45
11 13 15 14 15 15 14 14 12 12 11 14 17 17 18 22 24 20 18 26 34 29 26 38 45 39 31 28 28 28 33 43 54 64 71 77 83 88 92 91 88 82 74 68 63 60 58 56 55 51 46 40 37 40 47 51 47 42 40 42 63 89 98 99 95 86 84 87 88 88 88 90 96 99 95 91 88 83 78 72 65 61 56 47 44 47
12 14 17 19 19 18 17 16 13 12 14 17 18 19 20 22 25 22 18 26 31 25 32 44 35 27 28 27 26 30 41 56 67 70 73 82 90 92 90 84 77 70 63 59 57 54 52 50 47 43 39 39 45 54 59 56 48 46 48 48 66 93 98 95 96 93 94 96 94 95 94 89 90 98 97 89 83 77 72 69 65 65 68 63 52 48
13 12 18 23 23 22 21 17 13 14 17 20 21 21 20 22 23 20 19 24 23 24 37 39 27 30 34 28 32 44 55 68 72 70 77 88 93 91 85 75 66 60 57 56 54 53 53 50 45 42 43 49 60 66 63 57 51 50 58 65 75 90 91 87 92 96 98 99 98 99 100 95 92 98 99 92 83 72 67 71 74 74 75 76 69 58
13 12 20 27 26 25 23 18 14 17 20 21 23 22 19 21 21 19 24 23 21 32 41 32 26 40 44 32 43 64 69 69 69 72 84 95 93 84 72 63 57 53 53 51 50 52 53 50 47 48 51 58 65 64 60 59 58 58 68 78 80 81 84 85 89 95 96 96 98 99 100 99 98 99 100 97 89 77 71 73 79 83 81 81 80 71
12 13 21 29 29 26 23 18 16 21 24 22 22 21 19 22 21 21 24 21 29 44 40 29 29 42 51 43 48 61 61 63 75 82 88 87 79 68 59 54 51 49 50 51 52 53 52 50 49 48 53 60 58 56 64 69 67 68 71 76 75 72 77 84 85 90 91 88 89 90 91 93 93 93 95 95 91 86 80 73 77 86 85 83 87 83
14 17 24 30 30 26 20 17 20 27 28 25 24 22 21 24 22 24 26 27 43 52 38 30 34 40 50 52 48 48 48 61 78 79 73 65 57 54 51 49 51 53 56 57 56 54 54 52 49 50 57 59 51 55 76 86 82 81 81 80 79 75 76 80 80 80 81 80 78 75 75 78 81 85 87 88 84 82 83 80 81 85 85 87 94 94
15 19 26 28 26 23 19 19 26 32 31 29 26 22 29 38 36 35 40 40 45 46 35 34 39 37 42 48 46 44 54 73 78 66 58 54 52 51 50 51 51 48 48 50 52 54 55 55 56 57 55 48 45 58 78 89 92 95 95 93 90 86 83 82 80 77 75 73 69 67 69 72 75 78 82 83 79 78 88 95 91 87 85 89 97 99
18 21 24 22 20 21 20 25 34 36 33 32 28 26 36 52 60 62 63 58 53 47 37 35 41 41 41 41 42 52 71 85 79 64 56 53 52 51 49 46 42 38 41 48 55 59 60 62 59 51 47 49 58 69 75 80 90 94 95 96 94 91 88 81 77 74 71 69 69 73 78 81 82 82 83 84 81 83 95 101 97 91 86 88 97 100
29 28 22 17 21 25 23 30 40 39 34 34 31 29 33 44 63 75 73 67 65 57 44 39 42 46 45 39 46 66 76 74 69 60 54 53 52 51 45 41 44 48 52 57 62 64 61 54 44 43 60 76 80 80 76 74 82 87 88 94 97 96 90 81 76 75 73 74 78 85 88 87 88 88 87 89 86 85 90 91 91 91 87 87 97 99
34 31 20 18 27 30 24 30 42 42 36 35 32 29 30 36 47 60 62 55 57 61 54 44 41 43 41 38 58 78 68 55 58 54 52 54 51 47 46 50 55 55 56 62 62 54 47 44 50 70 91 99 95 90 80 72 78 88 93 97 101 101 93 81 76 78 81 83 86 91 91 90 91 90 87 88 88 84 81 80 84 89 89 91 99 100
40 29 17 20 29 27 22 27 41 46 40 35 35 29 28 36 43 54 58 47 49 64 59 45 43 44 41 46 67 76 61 52 56 54 54 53 48 50 57 59 56 51 53 54 43 43 56 70 84 98 102 101 102 99 86 76 78 86 94 100 103 100 88 77 77 82 85 88 89 90 90 89 90 92 90 86 84 83 79 75 79 88 91 93 99 102
42 32 16 21 30 24 20 26 34 42 40 36 38 31 28 41 49 53 57 53 60 71 58 43 47 50 49 58 65 61 57 59 59 57 55 51 54 64 66 60 50 43 40 34 36 55 76 88 96 99 100 101 102 100 96 90 84 85 94 100 99 92 81 77 84 90 91 90 88 87 87 86 86 91 97 93 86 84 84 80 78 84 90 91 95 100
33 37 23 21 29 24 21 26 30 34 35 36 40 32 32 52 59 53 56 64 74 77 62 48 50 52 56 60 60 59 64 65 59 56 55 58 69 72 65 56 43 35 33 34 50 71 79 85 96 99 99 101 99 99 100 97 92 92 94 91 85 84 87 91 95 98 99 97 92 88 85 83 82 85 93 98 94 91 90 88 83 82 85 87 89 95
26 41 34 24 27 25 21 24 27 29 31 38 41 32 36 56 62 60 63 67 72 75 71 63 59 58 60 60 62 67 68 62 58 58 61 70 76 70 60 50 41 45 54 51 59 78 83 84 92 95 92 90 89 89 89 92 95 94 87 82 84 89 94 98 100 100 102 101 98 93 85 80 78 78 85 92 97 98 92 86 85 83 81 84 86 91
25 36 37 27 23 24 25 26 26 27 32 41 40 34 43 58 61 65 69 63 65 72 74 76 71 59 57 62 67 68 64 60 59 62 69 76 74 65 53 49 58 70 73 66 73 90 85 69 70 79 81 79 79 80 80 83 87 86 85 88 95 98 97 97 100 100 101 102 101 95 86 80 76 74 78 83 90 96 91 84 87 89 82 78 82 89
23 28 39 38 27 23 27 27 25 29 36 40 37 36 49 61 65 76 78 63 61 71 74 82 82 64 57 64 67 64 61 60 62 69 76 75 68 57 46 56 79 83 76 79 94 102 83 58 55 65 70 74 77 79 80 80 80 81 89 98 101 100 100 99 99 99 100 100 97 90 83 79 75 72 74 77 80 85 87 83 86 92 89 80 76 83
23 32 43 38 26 26 31 30 29 33 37 36 34 36 47 61 69 79 81 68 67 73 71 76 81 69 61 63 62 62 63 62 68 76 77 70 60 50 48 63 76 73 79 94 103 98 77 54 51 56 61 67 72 80 87 89 88 87 90 97 99 97 99 100 99 99 99 96 89 82 78 77 73 71 73 76 74 74 79 81 82 90 96 92 81 77
27 36 36 26 22 24 27 30 30 30 32 32 32 37 48 60 61 61 66 73 82 81 71 76 81 69 59 60 61 64 65 66 71 76 74 68 56 47 54 68 69 72 92 104 99 90 73 57 53 52 55 59 59 68 84 93 99 99 97 98 97 95 95 95 94 95 94 93 88 81 78 77 72 70 74 78 73 70 73 75 79 89 97 98 92 81
28 31 30 35 42 39 34 36 33 29 32 33 33 41 50 53 50 47 53 75 91 81 70 82 84 66 58 61 63 67 70 69 71 75 74 66 56 53 60 68 74 87 100 98 92 91 84 73 60 50 54 61 53 50 63 81 95 100 97 94 93 92 92 91 90 90 91 91 88 83 81 77 71 70 76 80 76 72 74 76 80 89 96 97 97 89
29 29 32 46 59 61 59 50 39 35 35 34 36 43 47 46 45 46 53 74 89 78 71 82 78 63 59 63 66 69 70 68 69 74 71 62 60 64 65 71 84 97 98 92 93 99 98 92 81 66 57 52 46 42 44 61 86 100 98 89 86 86 85 86 87 86 88 87 84 84 81 73 71 73 78 85 84 78 76 77 79 82 87 92 97 95
31 31 34 44 51 54 52 41 35 37 37 37 40 42 44 44 44 50 59 69 76 77 76 73 68 67 68 67 71 73 71 72 75 73 66 63 69 71 69 78 93 98 94 93 98 103 102 100 100 95 74 46 37 39 38 50 75 93 97 93 91 88 87 88 87 83 86 85 82 81 77 72 75 77 81 89 90 84 79 78 78 75 75 84 94 97
31 31 34 39 39 37 35 33 35 39 39 40 43 43 43 44 45 53 59 58 62 74 76 64 63 74 72 70 76 76 75 81 80 71 65 71 79 76 75 85 95 96 94 95 100 102 101 98 95 92 80 55 37 30 34 53 76 87 89 90 92 92 92 94 91 86 87 85 81 79 76 75 78 81 87 95 95 92 89 85 82 78 77 87 96 99
30 32 35 37 35 33 35 37 38 40 41 42 42 43 44 46 48 52 55 54 58 70 71 65 68 72 69 72 76 74 80 87 79 68 68 77 82 79 79 88 94 96 100 101 102 101 100 101 93 81 75 64 45 29 28 49 77 92 93 92 94 95 95 96 94 90 88 84 83 84 81 80 84 88 94 98 100 101 97 90 87 87 88 90 92 92
32 35 38 39 37 35 37 40 40 42 43 41 41 44 46 48 49 51 53 57 63 69 70 69 70 69 68 73 73 72 82 84 74 68 72 80 84 80 83 90 92 93 97 101 104 101 100 103 99 87 77 64 44 30 33 56 82 94 95 95 96 96 98 100 97 95 92 87 87 90 88 88 91 93 95 98 102 102 96 91 90 90 85 79 80 88
36 38 41 43 40 37 39 41 42 43 44 42 43 46 48 49 51 53 57 64 70 73 69 68 72 72 70 71 74 79 82 78 73 74 78 82 84 84 89 94 92 90 92 98 103 101 100 102 99 92 83 67 42 26 38 69 91 95 95 99 100 98 100 102 100 98 96 92 90 93 95 96 95 93 93 97 99 97 94 95 95 93 88 85 90 97
40 41 42 45 45 42 41 43 44 44 43 42 44 47 48 50 55 60 66 71 74 71 68 73 79 78 74 76 81 83 81 79 79 81 85 86 85 90 98 100 97 94 94 99 101 100 100 101 100 98 92 74 45 24 39 74 93 95 96 100 101 100 100 101 99 97 96 94 94 96 100 101 96 89 89 94 97 98 99 100 99 98 98 98 99 99
46 47 45 47 49 44 41 44 47 48 49 48 48 50 51 55 63 70 74 73 70 70 76 81 81 78 79 83 84 83 83 86 87 88 91 91 92 98 102 102 102 100 100 102 100 100 102 101 100 102 91 67 38 28 54 87 96 94 97 101 102 101 100 100 99 98 97 97 98 99 102 101 94 88 91 97 100 102 101 101 101 102 102 101 100 100
50 51 48 47 51 49 43 45 49 54 57 55 50 51 57 64 70 73 73 70 68 72 78 78 77 81 86 86 85 86 88 90 92 93 91 91 97 103 101 101 102 100 100 102 98 98 102 102 101 95 76 50 28 34 69 96 98 97 100 102 102 100 99 100 99 99 99 100 101 101 101 98 92 92 98 101 101 101 100 101 102 101 100 101 101 101
48 49 47 46 53 51 43 49 64 65 57 52 52 57 64 69 70 71 69 70 74 77 77 79 86 91 89 86 85 87 89 90 89 87 87 94 102 103 101 102 101 99 100 98 94 94 98 102 100 84 57 33 23 45 84 100 98 100 102 101 102 101 99 100 100 100 100 101 103 102 98 95 94 97 101 101 100 100 100 100 101 100 100 100 100 100
47 52 51 48 52 50 44 59 76 67 50 50 59 64 68 70 72 76 78 79 80 82 85 92 94 88 83 84 85 87 92 92 84 78 85 98 103 101 101 101 98 97 98 97 97 96 96 102 98 71 42 22 25 60 97 102 97 100 101 101 102 101 99 100 100 100 100 101 102 101 99 99 99 100 101 100 100 100 100 100 100 99 100 100 100 100
53 57 54 52 54 52 52 60 65 58 53 59 67 70 73 74 77 85 92 88 81 83 90 92 87 81 82 86 89 92 96 95 88 82 86 97 101 100 101 98 94 94 94 97 102 98 98 104 87 51 26 17 32 73 102 100 98 102 100 100 102 100 100 100 100 100 100 100 102 101 100 100 100 100 100 100 100 100 100 100 99 100 100 100 100 99
58 60 59 61 58 51 56 65 66 64 63 62 67 71 73 75 80 88 92 84 77 81 86 85 82 83 87 93 97 99 98 98 97 93 94 100 101 96 92 90 90 91 93 98 99 96 101 93 60 28 17 18 43 86 103 96 97 101 100 101 102 99 100 100 99 100 100 100 101 100 100 100 100 100 100 100 100 100 99 100 100 100 100 99 99 98
61 63 63 66 59 50 57 70 73 67 61 60 66 70 73 79 84 85 81 75 75 81 82 81 83 87 94 100 102 100 100 101 101 97 93 93 91 87 85 85 84 85 91 95 93 93 91 66 31 16 15 21 55 95 103 96 99 101 100 101 100 99 100 100 99 100 100 100 100 100 100 100 100 100 100 100 100 101 101 101 100 99 100 102 102 100
66 68 66 64 58 50 56 67 68 62 58 62 68 72 79 82 80 82 86 83 81 81 79 80 86 91 98 102 101 100 101 100 99 97 92 86 82 81 83 87 88 84 84 87 87 78 57 31 16 13 14 37 79 102 98 96 100 100 100 101 100 100 100 100 100 100 100 100 100 100 100 100 100 100 100 100 100 100 98 96 98 100 98 96 93 90
69 71 68 64 58 53 56 63 64 59 58 65 71 77 82 81 79 88 96 89 82 79 76 81 89 96 100 102 100 100 101 100 99 97 93 86 80 80 81 83 86 84 78 79 77 56 25 12 15 11 16 55 97 104 95 97 100 99 101 101 99 100 100 100 100 100 100 100 100 100 100 100 100 100 100 100 100 98 93 92 98 101 96 91 89 87
76 75 72 68 62 58 57 61 64 62 61 67 75 79 82 85 89 93 87 77 75 77 78 84 92 99 102 102 101 100 100 102 98 93 90 84 79 85 87 79 76 80 78 69 52 26 11 12 13 11 33 77 103 101 97 98 98 100 102 100 99 101 100 100 100 99 100 100 100 100 100 99 100 100 99 98 98 99 98 97 99 99 95 92 89 86
77 76 75 71 66 61 60 66 75 73 67 72 82 84 84 88 89 82 72 68 71 76 84 92 97 102 102 100 101 102 101 99 93 86 84 77 72 83 87 77 73 77 71 51 27 11 12 14 8 22 62 97 104 99 98 97 98 101 101 99 100 100 99 100 100 100 100 100 100 100 100 100 100 101 99 97 97 99 99 96 92 87 85 84 82 83
74 79 80 74 69 69 68 69 72 72 73 80 85 79 73 71 70 68 68 70 72 78 92 102 103 102 101 100 101 98 90 83 76 73 70 62 58 65 67 62 66 64 47 27 15 12 14 10 15 49 89 103 101 100 100 98 99 101 100 100 100 100 100 100 100 99 100 100 100 100 100 100 100 100 100 99 99 96 92 91 91 88 87 91 93 95
75 78 77 72 71 73 69 65 68 74 78 77 68 60 58 59 62 65 71 77 81 85 95 104 103 101 101 102 101 96 86 72 59 52 51 46 44 49 52 52 53 43 24 13 14 14 10 13 38 79 102 101 100 102 100 99 100 100 100 101 100 99 100 100 99 100 100 99 100 100 99 97 97 98 98 96 95 95 93 95 99 99 98 99 98 97
69 68 70 71 70 67 61 63 71 73 67 59 54 55 59 61 64 70 77 86 91 91 94 99 102 104 103 98 96 95 84 61 39 31 32 31 31 39 47 45 34 20 13 14 14 10 12 35 73 99 101 98 101 102 99 100 100 100 100 100 100 100 100 100 100 100 99 99 100 98 97 97 98 97 95 91 90 92 92 95 100 102 101 96 92 91
66 70 72 72 73 71 66 66 69 63 54 54 57 59 62 64 68 75 83 90 91 90 93 96 98 94 81 67 64 65 54 35 22 20 21 22 27 34 35 27 17 13 16 15 10 13 36 72 99 104 98 99 102 100 99 100 100 100 101 100 99 100 100 100 100 100 100 100 99 97 98 99 99 98 97 97 95 93 92 95 100 100 95 90 89 90
75 80 81 79 77 72 65 63 61 56 53 56 59 62 66 69 71 74 78 80 76 70 68 65 61 52 37 27 29 31 26 21 21 19 18 21 25 25 20 16 15 16 13 9 17 43 76 99 104 99 99 101 100 99 100 100 99 100 101 99 100 100 100 100 99 99 100 98 96 96 98 99 99 98 99 99 98 97 97 99 99 96 90 88 90 93
78 84 87 84 74 65 63 63 60 55 55 58 62 66 70 73 76 73 65 58 50 40 30 25 23 21 19 19 21 20 17 17 18 18 20 22 20 18 17 17 14 10 13 28 56 85 101 104 100 99 101 101 99 100 101 99 99 101 100 99 100 100 100 100 100 99 100 99 98 98 98 97 97 97 98 98 98 99 100 97 94 92 91 93 97 97
81 86 86 82 76 72 72 69 61 56 57 61 66 69 69 70 70 59 41 30 24 20 16 14 15 16 17 18 18 16 16 17 19 20 21 19 17 17 16 13 13 24 46 72 93 102 102 101 101 101 100 100 100 100 100 99 100 100 99 100 100 99 100 101 100 99 100 100 100 100 98 95 94 96 98 98 97 98 99 99 98 94 90 95 101 101
87 85 80 78 78 76 70 63 58 57 61 65 68 63 54 46 40 29 18 14 14 13 14 16 16 16 16 15 15 17 18 18 19 18 16 14 16 18 19 27 46 70 89 100 101 99 99 102 102 99 98 100 100 99 99 100 100 99 100 100 100 100 101 101 101 101 100 100 101 101 98 96 96 99 101 99 95 92 91 96 102 100 94 95 100 100
Wind_Speed
14 13 13 14 14 16 16 15 15 14 15 16 16 15 12 17 25 28 28 24 21 28 33 29 29 29 23 23 26 26 24 24 25 29 33 34 33 33 31 29 28 28 27 27 28 29 31 33 35 38 41 42 44 46 50 53 54 56 59 60 61 62 63 64 65 66 67 68 68 69 69 69 70 72 72 72 69 64 58 53 50 51 51 52 54 53
13 13 14 14 12 14 16 14 14 14 16 17 14 13 11 18 31 33 28 26 24 28 32 27 26 26 23 21 21 20 21 22 25 28 30 31 29 28 26 25 27 27 28 29 30 32 33 35 38 40 43 46 48 51 53 55 57 60 62 63 64 65 65 66 66 64 61 58 56 55 55 58 62 62 61 59 58 57 54 49 44 43 45 47 50 53
12 14 14 12 13 15 16 15 15 17 20 20 14 12 17 26 36 38 35 31 28 30 30 24 28 29 22 17 16 17 19 21 25 28 28 28 26 24 22 23 26 26 28 30 32 35 37 39 42 45 48 51 53 56 57 59 61 61 61 62 62 60 58 57 55 52 47 43 42 42 42 45 49 50 47 45 44 46 47 44 38 35 38 41 45 49
12 14 12 13 15 16 18 19 19 21 23 21 15 14 23 32 33 37 41 35 31 30 24 23 33 31 17 14 15 16 19 24 27 28 27 25 24 22 22 24 25 26 27 30 33 36 40 43 46 49 51 53 55 58 60 61 61 61 60 59 56 51 48 45 43 42 39 35 34 35 37 39 42 42 41 39 38 38 38 39 35 29 28 33 38 44
13 13 11 12 14 17 20 22 25 26 27 24 18 18 28 34 31 33 36 35 33 24 15 22 31 26 14 11 14 16 21 27 26 26 25 23 23 22 22 24 24 25 27 31 36 39 43 45 46 47 49 51 54 57 59 59 60 59 59 56 51 46 43 41 40 40 39 35 34 36 38 39 40 40 39 39 38 37 36 38 38 33 27 26 30 37
15 15 13 12 16 18 20 24 27 28 29 26 21 23 31 32 32 33 31 34 36 22 18 24 19 18 15 7 11 24 30 28 23 22 21 21 23 23 23 24 24 26 30 35 40 43 44 44 45 47 49 53 57 58 58 58 57 57 54 51 46 41 39 39 39 40 39 38 36 37 39 41 41 39 39 39 38 38 38 39 41 40 34 27 26 30
17 17 15 16 18 19 20 25 27 28 29 25 23 27 31 30 31 32 30 31 31 23 24 20 9 15 19 9 18 35 33 25 20 19 20 19 20 20 20 22 26 31 37 42 45 46 47 48 48 51 54 58 59 58 56 55 54 52 50 48 43 38 35 36 38 39 38 36 35 36 36 38 39 39 39 38 38 38 39 40 41 41 39 33 29 28
18 18 16 17 19 20 22 24 27 28 26 23 24 28 31 32 30 29 29 26 24 24 19 11 12 19 20 19 31 36 25 17 15 16 18 19 18 18 20 25 31 38 44 49 51 52 52 52 54 56 58 58 56 53 53 53 53 52 51 49 43 38 36 36 37 37 36 34 34 35 35 35 35 37 38 37 37 38 39 41 42 40 39 36 32 29
18 19 17 17 18 20 21 22 27 27 23 24 25 27 34 33 30 28 22 17 20 21 10 10 22 19 21 32 30 20 15 11 12 17 18 17 17 19 24 32 39 45 50 54 56 58 57 56 57 58 56 52 50 51 53 53 53 52 50 45 40 38 37 38 37 36 35 34 34 33 33 35 36 37 38 38 38 38 39 41 41 40 38 36 34 31
18 20 17 18 17 20 21 20 28 27 24 26 24 31 38 33 31 24 12 15 21 14 3 14 26 13 18 32 19 5 8 11 15 19 17 16 17 23 31 39 46 51 56 59 61 60 58 58 58 56 53 50 49 52 53 53 51 49 44 40 39 38 38 38 37 36 36 37 36 34 34 36 37 38 40 40 40 40 40 41 40 40 38 36 35 33
19 18 14 17 17 21 22 21 28 27 24 27 27 37 42 37 33 16 5 15 15 4 2 12 28 18 11 17 12 11 18 18 15 13 14 19 23 30 39 45 51 56 59 60 61 59 58 58 58 57 55 51 51 53 52 50 48 46 43 42 42 41 40 39 37 36 36 37 38 37 37 38 39 40 41 42 43 43 43 43 42 41 39 36 34 34
20 15 12 15 16 21 22 22 30 27 26 28 28 39 42 37 32 13 7 14 5 2 5 18 33 25 10 7 12 23 29 21 11 9 17 27 34 41 47 51 54 56 57 57 57 58 60 60 60 59 56 53 51 51 48 45 43 45 45 45 45 43 42 40 38 38 38 38 39 40 41 42 42 43 43 43 44 44 45 44 42 40 39 36 34 34
22 14 10 15 18 21 21 27 32 28 28 28 28 39 32 20 19 10 7 10 4 8 19 30 34 21 10 9 18 30 28 13 7 14 29 37 43 49 51 55 58 60 61 61 61 62 61 59 57 56 54 52 50 48 46 42 42 45 46 46 46 44 42 41 40 41 41 41 43 44 45 45 45 44 44 45 44 43 42 42 42 40 38 37 35 34
24 15 12 19 21 19 20 30 31 27 29 25 25 33 20 5 7 5 4 4 6 16 28 36 28 15 11 14 25 29 15 3 6 19 34 42 48 51 54 61 66 67 65 63 62 60 58 56 55 54 53 50 49 48 46 44 44 45 46 46 46 45 43 42 43 44 45 46 47 46 44 43 44 44 44 44 43 41 38 37 39 40 38 37 37 36
16 8 14 23 21 17 21 27 25 24 25 19 19 26 20 10 5 4 5 3 6 19 29 29 17 8 11 22 29 19 6 8 18 28 39 46 48 51 59 67 66 62 61 59 58 57 56 56 53 51 48 47 48 47 46 46 45 45 45 45 46 46 46 45 47 47 47 48 47 43 41 41 42 41 41 42 41 40 39 38 39 40 39 38 39 39
10 8 17 21 13 14 23 24 24 23 18 16 19 24 27 20 11 12 14 14 14 17 17 15 11 13 20 30 25 11 11 23 30 39 46 49 55 61 64 62 58 59 60 56 55 54 53 51 48 47 46 46 47 47 48 48 46 43 43 44 47 49 50 50 50 48 45 44 43 41 40 40 40 39 39 40 41 41 42 40 40 40 40 38 39 40
12 17 24 18 8 15 25 24 24 21 17 18 19 25 32 22 15 15 17 18 16 9 8 8 11 22 31 27 16 14 23 34 38 46 52 57 64 64 58 56 58 60 56 51 51 52 50 47 46 45 44 45 46 48 50 49 45 42 42 44 48 51 53 53 51 47 42 42 42 41 40 39 38 38 39 40 40 41 41 40 39 39 40 39 38 39
18 27 29 18 11 22 28 24 22 19 20 22 18 26 33 19 11 10 9 12 8 4 10 12 13 22 23 15 15 24 31 36 44 53 58 64 62 54 53 58 61 57 50 49 51 49 48 47 46 45 44 45 47 49 50 49 46 43 42 45 50 53 54 52 48 45 43 43 43 43 42 40 37 36 37 40 41 40 40 40 39 39 40 40 39 38
21 26 26 18 16 26 28 22 21 19 23 24 19 27 30 14 10 9 7 9 8 4 8 18 23 19 11 12 22 30 36 44 54 58 60 59 52 50 58 62 59 53 49 50 49 47 48 48 47 46 45 45 46 46 47 47 46 43 44 48 50 50 48 45 43 43 43 45 45 46 45 42 39 36 35 37 40 41 41 41 40 39 40 40 40 39
20 17 20 23 23 29 28 22 21 22 26 24 22 29 27 13 13 15 12 11 11 7 6 16 19 6 6 21 27 28 38 50 57 58 56 51 49 55 61 60 57 52 50 50 48 47 49 50 51 48 46 46 46 47 48 50 50 50 50 50 47 45 41 38 39 41 43 45 48 50 48 44 42 39 35 34 36 39 42 41 39 38 38 39 39 39
19 13 21 29 31 30 27 21 20 23 25 24 25 29 24 15 17 19 19 17 13 6 4 9 10 9 20 28 24 26 41 54 58 56 52 49 53 60 61 58 56 53 51 49 46 47 51 55 56 52 49 48 47 47 48 50 51 51 48 45 41 39 37 35 36 39 43 47 51 52 51 48 46 43 38 35 35 38 42 40 36 35 37 38 38 38
23 20 24 32 35 32 26 21 20 20 19 21 26 28 22 18 18 13 13 21 21 13 6 5 10 22 28 20 18 31 48 57 57 51 49 52 57 62 61 57 55 52 51 47 44 48 55 59 58 55 54 53 52 52 49 48 48 45 41 38 36 35 35 36 36 39 44 48 52 53 52 51 50 46 42 40 39 39 41 39 35 33 35 38 39 38
25 23 25 33 36 31 24 21 21 22 22 25 27 28 25 19 17 11 11 22 29 26 22 13 11 19 18 14 24 43 53 56 51 45 48 55 60 63 61 57 55 52 48 46 46 52 59 61 58 56 57 57 58 58 54 53 53 47 39 35 35 36 36 37 39 42 46 51 54 55 54 53 52 48 44 42 41 38 37 36 33 32 33 35 37 39
22 17 25 38 40 37 32 27 28 31 32 32 30 30 26 20 21 22 23 25 24 26 26 14 10 19 24 28 41 52 55 53 48 46 52 58 63 64 60 56 54 51 48 47 50 58 62 61 60 61 60 60 61 60 59 60 58 51 44 40 41 42 42 43 44 47 50 53 56 57 57 56 54 48 44 43 41 37 35 34 31 30 31 32 35 38
20 16 24 28 26 30 33 30 36 43 39 34 32 31 28 26 28 29 29 25 16 20 23 12 13 30 40 45 53 55 53 52 49 50 55 60 65 63 59 57 54 52 51 52 58 63 63 63 64 64 62 62 65 64 61 63 62 58 54 51 49 48 48 50 51 53 54 57 60 61 61 59 53 46 43 42 39 34 32 32 29 28 29 30 32 36
21 20 22 16 9 12 17 20 33 42 40 36 36 34 33 33 30 27 27 20 13 20 27 19 23 43 53 55 58 56 53 54 53 54 58 62 63 61 60 58 54 53 54 58 63 64 64 65 67 66 65 65 67 68 66 65 64 64 65 63 59 55 52 51 51 52 54 57 59 61 62 57 48 43 40 37 35 32 30 30 30 29 28 28 30 33
23 22 20 14 12 16 23 30 34 33 33 38 40 39 35 31 26 23 23 23 23 28 31 29 33 45 54 58 56 52 52 53 54 57 62 63 61 60 60 56 54 54 58 63 65 64 65 66 65 66 68 68 68 69 69 69 68 66 66 66 64 60 56 52 50 48 47 49 49 50 51 46 40 39 36 32 31 30 28 29 30 29 28 28 30 32
26 25 21 20 22 27 33 36 32 26 30 38 40 38 33 27 24 22 22 29 35 29 30 43 47 48 55 57 50 48 50 50 54 61 64 61 59 60 60 55 54 57 62 65 66 66 68 68 67 67 69 71 71 69 67 69 72 72 70 67 64 60 55 51 50 47 44 44 43 41 39 35 34 35 31 27 27 27 26 28 29 29 29 29 31 32
26 25 25 27 33 36 34 33 31 31 35 38 34 31 29 25 25 26 26 32 36 31 35 51 55 54 58 55 49 51 50 49 58 65 63 59 59 60 59 56 57 61 64 66 66 67 68 69 71 72 72 74 75 73 70 68 71 73 72 68 62 58 54 50 48 45 42 40 38 36 32 28 28 29 26 24 24 23 25 26 27 29 30 30 32 33
25 27 28 32 39 39 34 33 34 35 40 39 28 22 24 26 27 30 32 33 34 35 41 50 54 56 55 51 52 54 51 53 63 65 61 59 60 60 58 56 59 64 66 66 67 68 68 68 70 73 74 74 75 74 73 72 72 73 70 65 59 53 50 49 47 43 40 37 34 31 28 24 22 23 23 23 22 22 24 25 27 29 29 29 30 31
26 30 31 35 41 40 36 37 38 40 40 33 23 21 27 30 31 33 35 34 35 40 47 50 52 54 52 50 52 53 53 60 65 62 60 60 60 59 55 56 62 66 67 68 67 68 69 69 71 72 74 76 77 73 70 71 73 73 68 62 56 51 47 45 45 42 38 34 31 28 25 21 18 19 20 22 22 21 21 23 25 28 27 27 27 27
28 31 34 37 38 39 39 38 41 45 37 25 25 31 32 32 34 33 32 33 38 45 51 51 49 50 51 51 52 55 59 63 63 60 60 60 59 55 52 55 62 66 67 68 68 69 69 70 71 72 73 76 78 74 71 71 73 71 67 59 53 49 46 43 43 40 35 31 29 25 22 19 16 16 18 19 20 19 20 21 23 23 22 21 21 21
28 30 36 34 32 39 42 37 41 41 26 21 32 37 33 33 35 32 32 38 44 46 47 48 48 49 50 54 59 63 63 62 61 59 59 59 56 51 51 56 62 65 66 67 68 69 70 70 70 71 74 76 75 72 70 71 72 70 65 57 50 47 44 41 40 37 32 29 26 23 19 16 14 14 15 16 17 18 18 19 17 16 15 14 13 12
27 30 33 30 28 35 39 39 39 27 13 23 37 35 30 31 30 34 43 48 51 51 48 45 45 47 53 59 63 65 64 62 60 58 57 55 51 50 54 59 62 64 66 66 67 68 69 70 69 70 74 75 72 68 67 68 69 67 60 53 49 45 42 39 37 33 30 26 23 19 16 13 12 12 13 14 14 14 14 12 10 9 8 6 3 1
30 32 33 32 29 31 36 35 24 14 20 34 35 27 25 26 31 45 54 53 53 53 45 38 41 51 59 62 63 64 64 63 61 60 56 51 49 52 58 62 64 65 66 65 65 67 67 67 68 73 76 73 69 66 67 67 67 63 56 50 46 43 40 37 33 30 26 22 19 15 12 11 11 10 10 10 10 8 7 5 3 2 2 4 8 8
31 31 33 34 27 26 34 28 14 21 37 35 22 20 26 33 44 52 54 56 54 44 35 38 50 59 62 63 64 64 63 62 62 61 56 51 53 56 60 64 66 65 64 64 65 66 66 64 68 74 75 70 66 64 65 66 64 59 53 47 43 41 38 33 29 25 21 18 14 10 8 9 8 6 5 5 4 2 0 2 3 4 6 10 11 8
31 31 33 32 24 23 30 29 26 33 33 21 16 25 36 47 53 51 51 55 47 33 36 50 60 63 63 64 64 63 62 63 63 61 58 57 59 61 62 65 64 62 63 63 63 64 63 64 70 73 70 66 63 62 63 63 60 55 49 44 41 39 34 29 25 21 17 13 9 6 5 4 3 3 3 1 2 4 6 6 5 5 8 11 9 6
31 31 29 25 25 27 28 26 24 21 17 18 24 34 45 53 55 51 50 48 38 37 49 59 61 62 64 63 62 62 62 62 62 62 62 62 63 64 65 64 62 62 63 63 63 63 62 66 71 70 65 61 59 59 61 60 56 51 46 42 39 36 30 26 22 19 14 10 5 1 2 4 6 5 4 6 9 10 9 8 6 6 6 7 4 2
30 30 27 23 26 31 27 20 14 12 18 26 32 41 51 55 55 51 43 38 42 50 58 61 61 63 62 61 62 62 60 58 62 65 66 64 65 66 66 65 64 63 63 62 61 61 63 68 70 66 62 59 57 57 58 56 52 47 42 39 36 31 27 23 20 17 13 8 6 7 8 8 7 7 8 11 13 11 9 7 6 6 5 4 3 3
30 29 27 24 28 34 30 22 19 21 25 29 35 47 54 55 55 44 27 32 51 59 59 61 63 62 61 61 61 59 56 57 63 66 65 65 65 65 64 64 64 64 64 62 59 61 66 69 66 61 58 57 57 57 54 51 47 42 38 36 32 27 24 21 18 15 11 10 10 10 9 9 9 11 13 13 11 9 8 7 5 4 3 3 3 4
31 27 25 25 31 34 29 26 29 30 29 31 41 52 55 55 51 35 26 41 59 61 60 63 62 62 62 61 59 58 57 59 63 65 65 65 66 66 65 63 62 63 61 58 58 64 67 64 59 57 55 52 52 53 51 47 42 37 35 32 27 23 21 18 15 12 11 11 11 11 10 10 12 14 13 11 8 7 7 5 3 1 0 1 1 3
30 27 26 27 29 29 28 29 30 29 30 38 48 53 53 50 43 38 44 56 60 60 63 63 62 63 62 61 62 62 62 63 65 65 65 65 66 66 63 62 61 59 55 56 61 64 63 58 55 54 53 51 50 48 45 42 37 34 32 28 23 20 18 14 11 10 10 11 11 11 11 12 13 14 12 9 8 7 5 3 2 1 1 2 4 4
29 29 31 30 28 28 29 25 20 24 38 49 53 53 51 46 42 47 57 61 61 62 64 63 63 64 62 63 65 64 65 67 66 64 65 66 65 62 59 57 56 53 54 60 62 60 56 55 53 51 50 50 48 44 40 36 33 30 28 24 20 17 14 10 9 9 9 10 11 12 12 13 13 12 10 8 7 5 3 2 1 1 1 3 5 5
28 30 32 31 28 27 28 25 24 34 47 51 51 52 52 49 49 54 59 62 64 64 62 63 65 64 63 65 66 66 68 67 65 65 66 64 62 59 58 55 53 53 57 60 57 54 53 52 51 49 49 48 44 39 35 32 29 28 25 21 17 13 10 8 8 8 8 9 10 12 13 12 11 10 8 6 5 2 2 2 2 4 5 6 7 7
30 31 32 33 33 32 35 38 41 45 48 50 51 52 53 53 54 56 58 60 63 63 63 64 65 64 65 66 66 67 68 66 65 65 62 61 61 58 56 54 53 55 57 55 52 52 51 49 49 48 47 44 39 33 29 28 27 26 23 19 15 10 7 6 7 7 7 8 9 11 11 10 8 7 6 5 3 1 2 3 4 6 6 7 8 8
31 32 32 35 39 42 43 44 47 49 51 52 53 52 54 56 57 57 58 59 60 62 63 63 63 65 66 66 66 66 65 65 65 63 62 63 62 57 53 54 55 55 54 51 50 49 47 46 47 46 44 40 34 28 25 25 25 25 22 18 13 9 5 5 6 6 6 6 7 8 7 6 7 6 5 3 2 3 4 3 3 4 5 7 9 10
32 32 33 37 42 45 46 47 49 52 53 53 53 55 57 59 59 59 59 59 60 61 63 63 64 65 66 66 66 65 64 66 66 65 65 64 59 56 55 56 55 53 50 49 48 46 45 45 45 44 41 36 29 24 23 23 24 23 21 17 12 8 5 5 5 6 6 5 5 5 4 5 6 5 4 3 4 6 7 6 3 4 7 10 11 13
32 32 36 41 43 44 46 48 50 52 52 52 54 57 59 60 61 61 60 60 62 63 64 64 64 65 65 66 66 65 66 67 66 65 64 62 59 58 56 54 51 49 47 45 43 43 44 44 43 41 37 30 25 23 23 23 23 22 19 16 12 7 4 5 5 5 5 4 4 4 6 7 5 4 2 2 4 7 10 8 5 6 10 14 16 19
34 35 39 42 43 44 46 48 51 55 58 57 56 58 59 60 61 62 62 63 64 65 66 67 66 65 65 66 66 67 67 65 63 62 61 59 57 55 52 49 47 45 43 42 42 42 43 43 41 37 31 26 23 22 22 23 22 21 19 15 11 7 4 4 5 4 4 2 3 5 7 7 4 3 4 6 6 7 10 11 8 8 12 16 20 24
39 41 42 41 42 46 47 48 50 55 59 60 59 60 60 60 61 63 65 65 65 66 67 68 68 68 67 66 66 65 64 62 61 59 57 55 52 50 48 46 44 42 41 41 41 42 42 41 38 32 26 22 22 22 23 23 22 21 19 16 12 8 4 4 5 4 4 4 5 6 7 6 5 6 7 7 5 4 6 11 12 12 13 17 20 24
40 42 40 38 41 44 46 47 48 51 55 59 59 60 61 62 63 64 65 65 66 66 67 68 69 70 69 67 64 62 60 59 58 55 53 50 48 46 45 44 43 42 42 42 42 42 41 38 33 26 21 20 21 22 23 24 23 21 19 16 12 9 5 5 5 5 5 6 7 7 7 6 6 6 5 6 6 3 0 4 9 13 15 17 20 22
Wind_Direction
347 347 350 4 5 2 3 4 15 7 344 335 318 310 317 319 317 322 332 336 328 316 311 311 310 312 318 312 311 312 307 304 299 296 292 288 285 282 281 281 282 284 284 286 287 288 290 290 292 293 295 295 295 295 294 294 295 298 300 301 302 305 306 305 304 304 304 303 301 298 295 292 290 289 290 290 289 287 283 279 276 272 269 264 258 254
337 348 5 13 5 359 358 356 359 354 349 345 325 309 316 324 321 324 335 337 332 319 312 319 318 317 324 315 309 309 304 300 294 288 284 279 275 273 274 277 281 285 287 291 293 293 293 294 297 300 300 300 300 300 300 300 301 302 305 306 308 310 310 309 308 307 307 304 300 297 293 292 291 291 289 287 286 286 285 280 275 270 266 261 257 254
336 355 9 7 1 1 356 349 347 348 354 353 337 312 320 333 330 327 334 337 331 321 316 325 323 320 331 328 320 322 313 304 294 286 279 273 269 268 272 277 282 288 292 295 298 298 300 302 304 305 305 306 308 309 309 309 309 310 311 312 312 311 309 308 306 304 303 299 293 289 285 285 288 288 288 287 286 286 287 286 280 273 267 261 255 253
347 1 3 358 2 2 354 349 348 349 356 357 345 323 327 339 338 328 331 333 327 322 319 322 319 318 335 340 324 321 317 314 303 289 277 266 263 266 273 279 285 292 297 300 304 307 311 313 313 313 313 314 315 316 315 314 314 315 316 316 313 308 304 301 297 295 295 290 283 280 278 277 279 282 285 287 288 288 289 291 288 279 272 265 256 250
346 349 344 347 349 351 353 352 350 348 351 358 354 339 336 339 337 327 328 327 322 326 330 325 317 314 334 345 319 321 325 319 303 283 268 259 263 269 275 283 288 296 303 308 312 316 319 320 320 319 318 318 318 317 317 316 316 316 316 315 310 302 297 294 289 289 290 286 279 276 274 274 275 277 281 285 287 288 289 293 293 288 279 272 264 253
343 337 328 328 330 338 349 351 351 348 346 352 351 344 341 337 332 329 331 326 322 328 337 334 325 311 327 358 327 331 331 317 293 268 258 257 266 274 280 288 293 302 311 316 320 323 324 323 320 318 318 319 319 318 317 316 316 316 315 313 307 300 296 292 289 291 291 288 285 281 277 275 276 277 279 282 285 287 288 290 293 293 288 278 270 263
345 342 325 317 321 325 334 345 350 346 342 345 345 342 341 335 329 330 332 324 316 319 325 333 343 311 317 343 332 329 324 303 274 258 263 268 275 283 290 297 305 313 319 322 324 326 325 322 319 319 320 321 320 318 315 315 316 317 314 313 309 302 298 294 293 294 294 291 289 286 281 278 278 279 279 281 283 284 287 289 290 292 291 285 277 272
340 341 327 315 315 316 326 345 350 342 338 340 338 341 341 335 331 333 330 320 315 321 321 332 355 328 314 321 325 322 310 279 263 273 282 279 276 285 298 308 316 321 323 325 326 325 324 321 320 322 323 322 320 318 316 316 317 316 314 313 309 301 300 300 296 295 294 292 289 283 280 281 280 278 278 280 284 286 288 289 288 288 288 287 283 278
334 336 328 317 315 320 332 348 348 340 336 337 335 338 341 336 334 336 327 319 326 325 322 358 360 345 308 314 324 319 300 285 293 299 286 272 276 292 306 316 321 322 323 324 325 325 323 321 322 324 325 323 320 319 318 317 316 315 315 314 307 301 302 303 300 295 292 292 293 287 282 282 281 279 278 280 284 288 292 290 286 284 283 283 283 281
334 332 326 322 319 326 332 339 343 339 334 337 332 331 338 339 339 340 322 321 326 312 318 4 357 350 302 316 338 1 319 322 317 301 278 269 285 303 313 319 321 321 322 323 323 323 322 322 324 325 324 321 319 318 318 316 314 314 315 312 308 305 305 305 303 298 293 293 296 295 289 285 283 281 280 282 283 286 292 293 285 282 282 282 282 280
334 331 322 321 318 325 327 330 339 338 332 336 334 333 339 344 346 349 301 321 325 282 142 353 341 336 306 318 346 357 343 340 329 303 282 288 301 313 320 322 323 323 324 324 323 323 321 322 323 323 320 317 316 317 316 314 313 315 315 312 310 308 307 306 304 299 295 294 296 295 292 288 286 284 283 283 284 284 288 290 285 280 280 280 281 280
340 333 315 317 313 321 326 329 335 334 331 332 337 344 347 346 349 354 327 337 344 240 314 330 331 328 297 293 331 339 339 339 347 342 324 323 325 326 327 327 328 328 327 325 324 322 321 322 322 320 318 316 316 317 317 316 315 314 314 312 311 309 308 306 303 300 298 297 296 295 294 291 287 285 285 284 285 286 285 284 281 277 277 276 277 280
347 341 325 329 321 322 331 333 332 332 333 331 341 354 356 347 348 348 335 343 296 279 314 325 328 320 293 306 329 335 339 349 17 351 335 333 332 329 329 330 329 326 324 322 320 320 321 323 321 319 318 318 318 319 319 316 313 312 312 310 309 308 308 306 304 301 300 299 298 297 295 292 288 285 284 284 285 285 282 278 275 274 273 271 272 275
348 349 346 342 327 325 335 333 330 330 333 335 349 1 2 336 338 325 299 321 277 292 313 322 321 307 307 328 329 333 349 22 318 326 329 330 331 328 325 323 321 320 320 320 320 321 322 322 319 318 320 320 320 320 318 314 311 311 310 309 308 308 308 308 307 304 300 299 299 296 293 290 289 286 283 283 283 282 279 277 275 274 272 268 266 269
343 338 343 342 329 328 335 332 329 326 328 332 345 357 354 328 307 269 271 280 288 300 310 318 317 298 319 328 322 320 338 325 313 318 322 321 321 318 315 317 319 321 323 323 322 322 321 319 318 321 323 322 320 318 318 318 315 312 310 311 311 310 308 309 309 306 301 298 297 293 290 290 289 285 281 280 279 276 275 277 276 272 271 266 262 263
327 305 336 341 323 325 335 333 330 325 325 329 333 347 349 331 293 273 277 279 291 298 303 311 304 297 316 320 309 285 302 314 312 315 315 314 315 314 316 321 325 327 325 323 322 322 322 322 324 325 325 323 321 318 318 319 317 315 311 311 313 311 308 309 309 306 300 297 295 290 288 289 287 283 279 276 276 275 274 274 273 270 268 263 259 260
319 314 337 348 326 334 340 335 332 326 323 329 331 341 344 329 290 284 286 290 299 296 289 295 295 307 318 318 294 272 295 302 307 316 319 318 319 319 323 327 328 327 326 324 325 326 328 329 329 329 327 325 323 320 319 319 317 315 311 311 312 309 306 307 307 305 299 297 294 289 286 285 284 284 281 277 275 275 276 274 272 269 266 261 257 258
319 316 335 350 334 338 342 337 334 327 320 325 330 338 341 331 291 293 298 303 305 277 291 297 304 313 317 312 290 296 306 314 323 327 324 321 322 324 328 329 328 328 328 329 329 331 334 335 333 332 331 327 323 320 319 317 315 313 309 309 308 305 305 306 307 306 303 299 295 291 287 284 285 286 285 282 278 276 277 276 272 267 264 260 257 255
326 317 330 341 330 335 342 340 336 329 322 321 318 330 337 323 289 303 305 301 300 286 294 302 310 313 313 313 311 316 327 333 332 329 324 323 325 329 330 329 329 331 332 332 333 334 337 338 337 335 330 325 320 318 315 313 312 310 306 304 302 303 305 306 306 307 304 299 296 293 289 286 288 289 286 284 282 279 276 273 271 267 262 260 257 255
333 317 316 325 329 334 339 341 337 330 326 318 309 324 331 309 290 304 294 279 284 292 299 306 311 323 342 323 316 322 332 334 331 327 324 324 327 330 330 330 331 334 334 332 333 336 338 338 337 333 326 319 314 311 307 305 306 305 302 300 300 301 303 306 308 305 300 297 295 293 290 288 290 291 288 285 282 279 275 274 273 268 262 259 258 256
334 316 303 318 332 337 338 339 339 333 327 316 312 322 327 309 303 308 297 283 274 268 296 311 301 302 317 315 308 316 326 328 327 324 321 322 327 330 331 332 334 335 333 332 334 336 334 334 333 332 330 327 323 318 312 308 307 304 300 299 300 299 298 301 302 297 295 293 291 290 288 288 291 291 289 286 281 275 272 274 275 271 262 256 255 255
336 323 307 316 330 335 333 331 335 335 325 316 319 324 325 314 308 308 301 300 295 281 274 275 280 300 309 301 296 315 323 325 324 320 318 322 328 330 331 333 335 334 332 335 337 332 329 330 331 333 336 338 338 336 331 326 323 314 302 297 299 298 294 292 289 287 289 287 284 284 285 289 292 292 291 288 283 276 271 272 275 273 266 257 252 251
337 328 318 320 326 332 333 330 335 341 332 326 328 327 324 315 304 290 286 300 301 295 294 289 278 298 306 295 306 320 324 324 321 317 319 325 329 331 333 334 335 335 336 339 335 329 328 330 333 335 337 340 342 341 339 336 334 328 313 300 295 291 287 286 283 280 281 280 279 281 284 290 293 293 292 289 285 280 273 271 272 271 268 261 253 248
340 335 326 326 328 333 335 332 335 339 334 330 332 329 322 312 307 303 295 293 292 291 298 302 286 298 309 311 316 323 324 322 319 318 323 328 329 332 334 335 336 338 340 338 333 331 332 335 336 336 336 339 341 340 339 336 333 329 320 308 298 290 285 282 280 278 278 278 279 281 284 290 292 292 293 290 286 283 276 270 268 267 265 261 254 248
341 338 331 328 329 334 336 336 335 334 331 328 329 329 322 315 315 312 302 293 279 282 298 304 288 301 311 316 320 324 323 321 320 321 326 330 329 332 335 335 336 339 339 336 334 335 337 337 336 336 336 337 338 338 337 335 332 329 324 317 309 300 292 286 282 280 279 277 279 281 284 288 290 291 292 290 287 283 275 267 262 261 261 259 256 250
336 336 336 330 320 324 324 322 325 326 324 324 325 325 322 319 318 312 302 293 280 293 301 292 289 304 314 319 323 325 323 321 322 324 328 329 329 332 335 335 336 338 336 335 336 337 337 337 337 337 337 337 338 336 335 335 334 331 328 325 320 314 307 299 291 286 282 279 280 281 283 285 288 289 289 288 285 278 270 262 257 258 260 260 257 252
336 336 338 327 307 303 305 312 322 323 318 320 322 322 323 323 319 311 301 297 301 303 301 298 302 308 315 322 325 324 321 321 324 327 329 329 329 332 335 334 334 334 334 335 336 336 336 336 336 335 334 336 338 336 334 334 333 332 329 326 323 319 316 311 304 298 293 289 286 284 284 286 286 286 285 283 280 275 267 260 255 256 260 260 257 253
335 334 337 329 318 317 319 323 327 324 317 318 320 321 323 321 314 306 301 305 311 308 304 312 317 315 317 322 324 320 320 323 325 328 329 328 329 332 334 334 333 332 334 335 336 336 335 335 335 334 334 336 338 337 334 333 332 332 331 328 325 321 318 314 308 305 302 297 293 291 289 286 283 283 283 283 279 273 266 259 254 255 258 259 256 253
333 333 335 330 325 327 333 334 330 327 325 323 321 320 320 316 310 306 305 310 312 306 306 315 320 318 319 322 321 320 322 324 325 326 327 328 329 332 333 333 332 333 334 335 335 335 335 334 333 334 334 335 337 336 334 333 333 332 331 329 326 322 319 316 311 309 306 301 298 297 293 284 279 281 284 284 277 268 261 257 254 253 253 254 254 254
333 333 335 331 327 331 340 339 333 331 329 327 326 323 318 317 314 310 311 313 311 307 311 317 318 317 319 321 320 321 322 322 324 326 327 328 330 332 333 332 332 333 334 335 335 334 334 333 332 332 334 335 336 336 334 333 332 332 331 329 327 323 320 317 315 314 312 305 300 298 292 282 277 281 283 282 274 264 258 254 251 250 251 255 258 259
334 333 335 333 327 331 342 341 335 333 330 327 330 327 321 319 316 315 316 318 317 317 319 319 316 316 320 322 321 322 322 323 325 327 328 329 330 332 332 331 332 333 334 334 334 333 334 333 332 332 333 334 336 335 333 331 331 332 332 330 327 325 322 318 315 316 314 306 299 296 291 281 275 277 279 279 274 266 261 254 251 252 258 264 265 263
336 334 335 335 327 329 340 341 334 333 332 330 333 330 326 322 316 313 315 318 322 323 322 320 317 317 321 322 322 323 324 325 327 328 328 329 330 331 330 330 331 332 333 333 333 333 332 332 332 331 331 333 334 334 333 332 332 333 333 331 328 326 324 319 316 316 315 307 298 295 289 279 274 276 277 277 273 268 263 258 257 260 266 269 267 266
338 334 335 337 326 325 337 339 332 332 333 333 335 330 324 321 315 310 314 320 324 324 321 318 316 318 322 324 324 325 326 327 328 327 327 327 329 329 329 329 330 331 332 332 331 331 331 332 331 330 330 332 334 333 332 332 332 333 333 331 328 326 324 320 316 316 316 308 298 294 288 279 276 275 273 272 269 266 265 266 269 272 273 273 272 274
337 333 335 337 324 323 334 336 331 333 334 330 331 326 319 319 318 317 320 323 325 325 321 317 316 321 325 326 326 326 327 327 326 326 327 328 329 329 328 329 330 330 331 331 331 331 331 331 330 329 330 333 334 332 331 332 333 333 333 331 329 328 326 324 319 317 316 310 301 296 288 277 269 265 266 267 265 265 271 276 281 281 277 273 261 242
337 335 336 336 327 323 332 338 336 332 329 329 328 325 322 322 322 321 321 323 326 325 322 319 321 326 326 326 326 326 326 326 326 326 329 330 329 329 328 329 330 330 330 330 330 331 331 330 329 328 331 333 333 332 332 333 333 333 333 332 332 332 331 329 325 322 319 313 305 297 282 264 259 258 261 264 264 272 283 285 278 261 216 139 123 111
338 337 336 335 332 329 334 338 328 316 326 331 330 326 327 328 329 327 324 325 327 326 324 325 326 327 326 326 326 326 326 326 326 328 331 331 330 330 330 330 331 331 331 331 330 330 331 329 327 328 331 333 333 333 333 333 334 334 334 335 336 336 335 332 331 329 325 318 308 292 268 254 253 250 248 252 264 286 139 128 130 135 137 133 129 124
338 337 337 335 334 334 330 322 314 317 327 338 339 337 336 333 333 331 323 322 328 329 327 328 326 325 326 327 328 328 328 327 326 329 332 331 330 331 331 332 333 332 331 330 328 328 328 326 326 329 332 333 333 333 332 333 334 335 336 338 338 337 336 337 339 340 337 330 317 291 259 238 198 171 179 166 118 118 121 120 117 120 131 138 140 153
338 337 338 331 327 331 327 318 318 322 329 338 336 335 334 331 331 330 321 320 328 330 326 326 325 326 328 329 330 330 330 328 326 329 331 330 330 331 332 333 333 330 329 327 325 325 325 324 326 330 332 333 334 333 333 334 336 337 338 339 339 338 340 346 351 355 356 354 356 33 127 130 128 128 122 116 119 120 115 108 99 97 111 129 141 173
340 338 337 327 324 331 329 319 315 307 314 327 329 329 330 330 330 330 322 319 327 328 326 327 328 328 330 331 331 332 331 328 326 327 330 331 331 332 332 331 329 328 326 325 323 323 323 323 327 331 333 334 335 334 334 335 336 338 339 340 340 341 347 356 3 8 17 36 64 93 109 112 111 114 118 121 122 118 115 112 100 87 95 116 146 184
340 337 336 330 328 332 330 319 312 312 318 326 328 329 330 330 332 333 325 321 327 328 328 329 330 330 331 332 332 333 330 327 325 327 330 331 332 332 330 328 327 326 325 323 322 321 322 324 328 332 334 336 335 334 335 336 337 339 341 341 342 346 355 5 13 20 39 66 84 97 104 102 106 116 120 121 117 112 112 112 104 110 132 145 168 184
340 338 336 333 330 332 331 320 316 320 326 329 330 331 330 331 335 336 324 322 326 328 330 331 331 331 332 332 332 330 327 326 326 328 330 331 331 330 328 326 325 324 323 322 320 320 322 326 330 333 335 336 335 334 335 336 338 341 342 342 345 353 2 13 24 38 61 79 87 94 96 100 111 118 118 115 110 108 107 101 96 115 122 321 264 231
340 338 336 334 331 331 329 321 316 322 331 332 330 330 332 335 337 332 324 325 328 330 331 332 331 332 332 331 330 329 327 328 329 330 330 330 329 328 326 325 324 323 321 320 319 321 325 329 332 334 336 337 337 336 336 337 339 344 344 344 349 358 9 23 40 57 74 81 85 90 95 104 113 119 121 118 111 103 94 80 90 113 322 290 273 274
341 338 336 334 331 329 328 325 319 323 330 332 330 331 335 338 334 327 327 329 331 332 332 332 332 333 332 331 330 330 329 330 331 331 330 328 327 326 325 324 324 321 319 319 321 326 330 332 334 336 337 338 339 339 338 338 341 345 346 345 351 1 14 36 57 68 77 85 89 92 96 104 112 117 120 119 114 106 93 74 47 329 303 298 307 323
340 338 334 332 332 329 324 322 322 324 326 329 331 332 335 336 333 331 331 331 332 333 333 332 332 333 332 332 331 331 331 332 331 330 328 326 326 325 323 323 323 320 319 322 326 331 334 334 336 338 339 340 341 341 340 340 343 348 348 346 351 3 22 52 70 76 86 95 94 94 100 107 113 116 113 109 112 116 99 68 357 332 334 339 343 347
340 340 335 331 330 326 320 322 327 328 327 330 333 335 335 335 335 334 333 333 334 335 334 333 332 333 333 332 331 330 330 331 330 328 326 325 326 325 324 323 323 321 323 327 332 335 335 336 337 339 341 343 344 344 344 344 347 350 350 348 353 8 35 72 81 82 97 108 105 108 115 114 106 103 103 105 107 73 19 5 344 340 349 350 343 333
340 341 337 332 330 327 328 333 335 331 331 335 337 337 336 336 336 336 336 335 335 335 334 334 334 333 332 331 330 329 329 329 329 328 326 325 326 327 326 325 325 327 330 334 336 337 337 337 339 341 344 346 349 350 351 352 351 352 351 350 356 13 47 87 91 86 99 119 125 127 124 98 79 77 72 65 42 2 355 356 356 360 356 341 328 320
343 341 337 334 332 328 331 337 336 331 333 338 338 337 337 337 337 338 338 337 336 336 336 335 334 333 332 331 331 330 330 330 330 329 328 328 329 330 329 328 330 334 337 338 339 339 339 340 343 345 347 350 354 357 359 359 356 355 354 354 359 16 56 101 106 95 97 117 139 145 114 71 68 75 73 49 3 358 12 28 35 7 346 339 336 335
345 341 336 334 332 328 330 335 333 332 336 341 340 339 339 339 338 339 339 338 338 338 337 336 335 334 334 333 333 333 333 333 332 331 331 332 332 333 333 334 337 339 341 342 341 342 343 345 348 350 351 354 0 4 5 3 360 359 360 1 5 19 60 113 120 112 111 114 116 110 92 81 81 92 85 32 6 14 16 13 359 345 345 349 352 350
345 341 337 332 330 331 335 336 334 334 339 343 342 341 340 339 339 339 340 341 341 339 338 338 337 337 336 336 336 336 336 335 334 334 334 334 335 336 338 340 342 344 345 345 345 345 347 350 353 354 356 1 6 10 10 7 4 5 7 8 12 24 66 123 126 122 122 101 68 84 94 91 85 74 40 18 19 20 6 356 351 347 350 354 355 350
346 341 338 333 332 334 337 338 336 335 338 341 342 341 341 341 340 340 342 343 342 341 340 339 338 339 339 339 339 339 338 337 336 336 337 338 341 343 344 345 347 348 348 348 348 350 353 355 356 358 2 8 12 14 14 12 12 12 12 13 19 29 63 119 120 105 92 80 86 105 112 103 79 62 42 25 27 28 356 352 351 346 350 358 356 350
344 340 339 336 334 334 336 338 339 337 337 339 341 341 341 342 342 342 344 343 342 341 341 340 340 341 342 342 342 342 340 339 340 342 344 347 349 349 350 351 351 350 350 351 351 354 357 360 1 4 11 16 19 20 18 17 17 16 16 18 23 31 58 105 109 96 89 95 101 105 105 96 77 62 31 360 4 28 335 327 338 338 345 356 357 356